Location: Ch�risy
(50.2331°N, 2.9131°E)
Time: 23:38:32
(UTC+00:00)

USA 229 - Pass Details

Date: 17 January 2021
Orbit: 964 x 1248 km, 63.4° (Epoch: 26 February)

Event Time Altitude Azimuth Distance (km) Brightness Sun altitude
Rises 20:02:30 0° 316° (NW) 3,928 7.3 -35.3°
Reaches altitude 10° 20:05:06 10° 316° (NW) 3,007 6.6 -35.7°
Enters shadow 20:10:40 58° 318° (NW) 1,345 4.2 -36.6°
